STARLINK-1527, 46048

Orbit data source: Space-Track

STARLINK-1527, 46048 is a payload satellite owned by SpaceX/Seattle (US) in LEO that was launched on Fri, 07 Aug 2020 UTC via an FALCON 9 launch vehicle from the Air Force Eastern Test Range (AFETR). Payload-class satellites include a variety of spacecraft equipped with specific instruments for various scientific and technological missions. These include communications satellites like Starlink; space stations such as the ISS; scientific satellites like the Hubble; Earth observation satellites from companies like Planet Labs, Umbra, and HawkEye 360; GPS; miniature CubeSats for education and research; and military/defense satellites.

Loading next visibility...
Identifier
46048, 2020-055X
Orbit
LEO
Country
Flag of USUS
Related business
Manufacturer
SpaceX/Seattle
Mission
Operational Commercial Communications
Bus & Motor
STARLINK, Unknown motor
Mass
260 kg wet, ~248 kg dry
Launch date (UTC)
2020-08-07 (5 years ago)
Launch vehicle
FALCON 9
Launch site
Air Force Eastern Test Range (AFETR)
Object type
Payload
Rocket body
Debris
Shape & HBR
Box + 1 Pan, 10.1 m
Radar Cross Section
13.562 m², Large (>1 m²)

Expand to show TLE details & history
Last TLE update: 21 hours ago

TLE from 21 hours ago
0 STARLINK-1527
1 46048U 20055X   25310.32827297  .00000347  00000-0  42189-4 0  9997
2 46048  53.0570 310.4108 0001677  95.1910 264.9270 15.06395991290411
Epoch: 2025-11-06T07:52Z
TLE epoch observation values (Epoch: 2025-11-06T07:52:42.784Z)
Latitude
-0.00006°
Longitude
146.44432°
Altitude
548.206 km
Speed
7.589 km/s
True Right ascension
20h 41m 38s
True Declination
0° 00' 00"
Sunlit
Object was in daylight at epoch
Visualization orbit readout
Latitude
Unknown
Longitude
Unknown
Altitude
Unknown
Speed
Unknown
Apparent Right ascension
Unknown
Apparent Declination
Unknown
Sunlit
N/A
Visualization observer readout
Local Sidereal Time
00:33:41
Azimuth
Unknown
Elevation
Unknown
Doppler factor
Unknown
Orbital elements
Apogee altitude
548.656 km
Perigee altitude
546.333 km
Semi-major axis
6,925.631 km
Eccentricity
0.00017
Inclination
53.057°
RAAN
310.4108°
Arg. of periapsis
95.191°
True anomaly
264.90786°
Mean anomaly
264.927°
Eccentric anomaly
264.91743°
Mean motion
3.76577 °/min
Orbital period
95.6 mins
BSTAR
0.000042189
Loading maneuver chart data...
Computing Atmospheric mass density...
Loading historical data...
Loading historical data...
Loading historical data...
Loading historical data...
Loading historical data...
Loading historical data...
Loading historical data...

Documentation

Showing up to 5 results
|